This demonstration page uses our WeatherBlox Daily Observations layout. Learn more.

Left ArrowRight Arrow

34.02893, -84.19858

Hourly Observations for December 15, 2018

Temp ( °F °C ) Dew Point ( °F °C ) Humidity (%) Winds ( mph kmh ) Pressure ( in mb ) Visibility ( mi km ) Precip ( " mm )
12:53 am 00:53 Cloudy 48 8.9 47 8.3 96 96 Calm 29.93 1014 7 11 0.00 0.00
1:42 am 01:42 Cloudy with Mist and Fog 48 8.9 47 8.3 96 96 E 3 6 29.91 1013 3 4 0.00 0.00
1:51 am 01:51 Cloudy with Mist and Fog 46 8 46 8 100 100 Calm 29.91 1013 3 5 0.00 0.00
1:53 am 01:53 Cloudy with Mist and Fog 47 8.3 47 8.3 100 100 VRB 5 7 29.93 1014 4 6 0.00 0.00
2:39 am 02:39 Cloudy with Mist and Fog 47 8.3 47 8.3 100 100 Calm 29.91 1013 3 4 0.00 0.00
2:53 am 02:53 Cloudy with Mist and Fog 47 8.3 47 8.3 100 100 Calm 29.92 1013 2 2 0.00 0.00
3:53 am 03:53 Cloudy with Mist and Fog 47 8.3 46 7.8 97 97 E 5 7 29.92 1013 2 2 0.00 0.00
4:53 am 04:53 Cloudy with Mist and Fog 47 8.3 47 8.3 100 100 Calm 29.90 1013 1 2 0.00 0.00
5:48 am 05:48 Cloudy with Light Rain 46 8 46 8 100 100 Calm 29.91 1013 2 3 0.03 0.76
5:53 am 05:53 Cloudy with Light Rain 47 8.3 46 7.8 97 97 Calm 29.93 1013 2 3 0.03 0.76
6:06 am 06:06 Cloudy with Mist and Fog 47 8.3 47 8.3 100 100 Calm 29.91 1013 2 3 0.00 0.03
6:20 am 06:20 Cloudy with Light Rain 47 8.3 47 8.3 100 100 E 5 7 29.91 1013 2 3 0.00 0.03
6:27 am 06:27 Cloudy with Light Rain 47 8.3 47 8.3 100 100 Calm 29.91 1013 3 5 0.00 0.03
6:41 am 06:41 Cloudy with Mist and Fog 47 8.3 47 8.3 100 100 Calm 29.91 1013 3 5 0.00 0.03
6:49 am 06:49 Cloudy with Mist and Fog 46 8 46 8 100 100 Calm 29.91 1013 4 6 0.00 0.03
6:53 am 06:53 Cloudy with Mist and Fog 47 8.3 47 8.3 100 100 Calm 29.93 1013 4 6 0.00 0.03
7:04 am 07:04 Cloudy with Mist and Fog 47 8.3 47 8.3 100 100 Calm 29.91 1013 3 5 0.00 0.00
7:53 am 07:53 Cloudy with Mist and Fog 47 8.3 47 8.3 100 100 SE 5 7 29.95 1014 4 6 0.00 0.00
8:50 am 08:50 Cloudy with Mist and Fog 48 9 46 8 94 94 SSE 7 11 29.94 1014 4 6 0.00 0.00
8:53 am 08:53 Cloudy with Mist and Fog 48 8.9 47 8.3 96 96 SSE 8 13 29.96 1014 5 8 0.00 0.00
9:01 am 09:01 Cloudy with Mist and Fog 48 8.9 47 8.3 96 96 SSE 7 11 29.94 1014 6 10 0.00 0.00
9:04 am 09:04 Cloudy 48 8.9 47 8.3 96 96 S 9 15 29.94 1014 7 11 0.00 0.00
9:11 am 09:11 Cloudy 49 9.4 47 8.3 93 93 S 7 11 29.94 1014 7 11 0.00 0.00
9:53 am 09:53 Cloudy 50 10 46 7.8 86 86 SW 12 19 29.96 1015 8 13 0.00 0.00
10:53 am 10:53 Sunny 52 11.1 45 7.2 77 77 SSW 10 17 29.95 1014 9 14 0.00 0.00
11:53 am 11:53 Cloudy 50 10 42 5.6 74 74 SW 13 20 29.95 1014 9 14 0.00 0.00
12:53 pm 12:53 Cloudy 50 10 42 5.6 74 74 SW 10 17 29.94 1014 9 14 0.00 0.00
1:53 pm 13:53 Cloudy 51 10.6 43 6.1 74 74 SSW 9 15 29.93 1014 9 14 0.00 0.00
2:53 pm 14:53 Cloudy 50 10 42 5.6 74 74 SW 9 15 29.93 1014 9 14 0.00 0.00
3:38 pm 15:38 Cloudy with Mist and Fog 48 8.9 45 7.2 89 89 SW 7 11 29.94 1014 5 8 0.00 0.03
3:53 pm 15:53 Cloudy with Haze 49 9.4 44 6.7 83 83 SW 9 15 29.95 1014 5 8 0.00 0.03
4:53 pm 16:53 Cloudy 49 9.4 43 6.1 80 80 SW 14 22 29.97 1015 10 16 0.00 0.00
5:53 pm 17:53 Cloudy 48 8.9 43 6.1 83 83 SW 9 15 29.98 1015 10 16 0.00 0.00
7:44 pm 19:44 Cloudy 48 8.9 43 6.1 83 83 SW 7 11 30.00 1016 9 14 0.00 0.00
8:53 pm 20:53 Cloudy 47 8.3 45 7.2 93 93 SW 6 9 30.03 1017 8 13 0.00 0.03
9:15 pm 21:15 Cloudy with Mist and Fog 47 8.3 45 7.2 93 93 WSW 6 9 30.06 1018 5 8 0.00 0.00
9:49 pm 21:49 Cloudy with Mist and Fog 46 8 45 7 93 93 W 5 7 30.06 1018 6 10 0.00 0.00
9:53 pm 21:53 Cloudy with Mist and Fog 47 8.3 45 7.2 93 93 WSW 3 6 30.03 1017 6 10 0.00 0.00
10:06 pm 22:06 Cloudy 47 8.3 45 7.2 93 93 WSW 6 9 30.06 1018 7 11 0.00 0.00
10:14 pm 22:14 Cloudy 47 8.3 45 7.2 93 93 W 6 9 30.06 1018 7 11 0.00 0.00
10:38 pm 22:38 Cloudy 46 7.8 45 7.2 96 96 WSW 6 9 30.06 1018 7 11 0.00 0.00
10:53 pm 22:53 Cloudy 47 8.3 45 7.2 93 93 WSW 6 9 30.04 1017 7 11 0.00 0.00
11:53 pm 23:53 Cloudy with Mist and Fog 47 8.3 45 7.2 93 93 W 7 11 30.04 1017 6 10 0.00 0.00

Powered by AerisWeather